Theta_e
303 303 304 304 304 305 305 305 305 306 306 306 307 307 307 308 308 304 301 305 299 293 294 296 297 293 293 293 287 291 290 291 290 285 288 287 286 288 286 291 291 293 292 293 292 291 288 307 306 298 301 305 310 309
303 303 304 304 304 304 304 304 305 305 305 306 306 307 307 307 308 306 299 305 307 297 295 299 300 301 299 298 294 295 289 291 292 289 289 290 288 290 290 285 296 293 296 291 295 295 305 309 306 308 311 306 309 310
302 303 303 303 303 304 304 304 304 305 305 306 306 307 307 306 307 306 301 302 302 296 295 295 298 302 305 304 303 293 295 297 296 295 292 292 288 293 287 288 291 296 299 296 297 302 302 307 311 312 311 311 312 312
303 303 303 303 303 303 303 304 304 305 305 306 307 307 307 307 306 306 301 303 302 298 289 292 301 299 305 305 303 302 300 301 299 299 294 292 289 296 291 293 292 296 297 296 298 302 302 306 307 311 314 314 314 313
302 302 302 303 303 303 303 303 304 304 305 306 307 307 307 307 305 305 303 304 306 296 289 291 297 300 303 304 303 302 300 298 295 293 292 290 293 294 295 294 292 298 295 294 296 300 299 302 304 311 312 312 312 314
301 302 302 303 303 303 303 303 304 305 306 307 307 307 307 305 305 301 297 307 307 305 294 286 297 298 301 302 301 300 300 297 296 293 292 294 299 293 289 289 296 299 301 300 300 304 303 303 307 307 313 313 314 316
301 302 302 302 303 303 303 304 304 305 306 306 306 306 307 306 303 298 296 302 304 301 295 289 290 297 301 301 299 298 299 297 296 293 291 292 293 295 289 286 294 297 298 300 303 303 300 302 300 304 309 314 315 315
301 301 302 302 302 303 303 304 305 305 306 306 306 306 307 305 303 298 303 306 305 298 298 288 289 292 302 295 293 299 294 296 295 293 294 291 292 292 287 292 295 297 298 299 301 303 301 304 304 304 307 311 312 314
301 301 301 302 302 302 303 304 305 305 305 305 306 306 306 300 300 302 308 307 305 298 291 292 287 285 299 295 296 296 298 290 296 290 291 292 289 286 291 292 294 296 297 299 300 304 303 303 303 303 304 309 308 312
300 301 301 302 302 302 303 304 305 305 305 306 306 303 300 303 308 307 302 298 297 297 295 289 295 286 294 292 292 291 295 291 287 291 296 290 288 294 295 297 299 299 299 299 297 298 301 301 302 302 303 308 309 312
300 301 301 302 302 303 303 305 305 305 307 305 300 300 304 310 305 301 295 294 296 292 295 295 296 293 298 289 288 292 288 289 284 289 290 289 288 293 295 295 297 298 300 300 299 301 304 303 302 302 303 306 307 309
300 300 301 301 302 303 304 304 304 303 303 301 299 303 305 304 299 294 291 294 292 290 296 294 295 297 294 294 289 290 286 288 283 290 288 286 293 295 293 293 294 296 297 301 302 301 303 305 305 304 305 307 308 309
300 300 301 301 302 303 304 303 303 304 305 308 301 300 296 295 287 288 286 289 289 295 296 296 294 297 295 292 288 287 284 284 290 285 285 287 293 293 293 292 295 299 301 301 303 303 303 305 307 306 306 308 310 311
300 300 300 301 302 303 301 301 303 304 304 302 297 287 291 289 291 292 291 293 297 298 298 299 296 295 296 291 291 286 289 289 284 282 284 288 291 293 293 296 297 298 300 301 304 306 302 304 305 307 307 308 309 308
299 300 300 302 301 301 301 302 303 308 306 299 298 287 291 297 297 297 297 297 298 300 298 296 296 295 292 289 290 288 284 283 284 283 286 289 292 296 295 295 297 299 301 301 304 306 306 304 304 305 307 307 308 309
299 300 302 300 300 300 301 303 309 312 306 300 299 294 297 295 294 296 296 296 300 299 299 297 291 290 289 288 285 284 283 282 285 285 291 295 296 298 298 297 298 301 303 304 304 306 307 307 307 307 311 310 310 310
298 297 300 300 299 300 302 303 309 304 300 298 297 300 298 297 296 297 298 297 301 298 293 294 288 286 291 286 284 286 284 286 290 295 298 300 299 300 300 300 299 300 303 306 306 307 307 308 307 306 306 310 312 316
293 296 299 299 299 299 306 308 305 300 295 298 296 297 299 300 298 298 300 300 299 297 296 293 295 288 284 282 285 288 291 297 299 299 300 301 302 302 302 302 301 301 303 304 304 304 305 306 306 305 307 310 313 313
296 297 298 299 298 297 299 303 305 296 297 299 299 299 299 299 301 301 301 302 302 302 298 295 291 289 289 293 293 295 297 298 297 299 301 302 303 303 303 303 303 302 303 303 303 304 305 305 305 305 308 310 309 310
298 298 298 300 301 300 299 300 307 299 295 298 299 296 297 298 300 301 300 301 298 296 294 292 292 294 295 297 299 299 299 300 299 297 297 300 301 303 303 303 303 303 303 304 304 300 305 305 306 306 306 306 309 308
297 300 300 302 301 300 301 299 298 299 299 297 298 297 296 299 298 298 298 300 296 293 292 295 296 298 301 301 302 303 301 301 300 299 298 298 301 301 301 303 304 303 303 303 302 303 302 304 305 307 307 307 308 308
295 300 300 303 299 301 299 302 297 299 297 296 295 297 294 294 295 296 300 296 295 295 296 297 298 298 300 301 301 302 303 302 302 301 299 300 300 299 300 301 302 301 301 302 304 303 303 304 306 307 306 306 305 306
298 300 299 299 295 293 291 301 294 296 292 294 296 293 293 294 296 299 295 297 296 299 299 299 299 301 300 302 303 303 303 301 300 301 301 301 301 301 300 301 302 300 300 302 304 304 304 297 302 305 305 306 306 305
299 295 292 293 294 288 296 293 298 295 294 291 291 290 291 292 295 292 290 293 297 299 298 298 299 297 298 301 299 299 300 302 302 300 301 301 299 300 300 300 301 302 302 303 303 303 304 304 300 304 304 303 304 304
287 286 289 285 292 291 290 290 291 290 289 290 289 289 291 294 289 288 289 293 296 296 297 298 297 296 295 296 300 301 303 300 299 300 301 300 300 301 300 300 300 301 302 301 302 302 302 303 303 303 302 302 302 302
280 286 286 288 289 289 290 286 287 288 289 288 289 292 294 289 286 286 290 294 296 296 297 296 295 295 295 296 296 297 298 301 301 299 300 302 300 298 298 297 297 298 301 301 302 301 301 302 302 302 303 302 295 302
280 283 289 294 293 292 290 292 292 290 287 287 289 288 288 284 285 289 296 298 297 297 297 296 296 294 294 296 298 299 300 300 299 300 302 302 302 302 300 297 296 298 301 301 303 303 301 301 300 301 302 302 303 302
285 287 283 287 289 290 287 287 288 287 289 292 291 286 285 286 287 293 297 300 300 298 297 296 297 295 295 296 298 298 298 299 299 301 302 303 303 302 299 301 301 291 299 298 302 302 302 303 302 302 299 298 298 300
284 288 287 283 285 287 287 286 286 289 293 291 288 287 289 294 296 296 297 298 298 297 295 294 296 297 296 298 299 299 299 296 294 293 293 293 293 296 297 298 299 300 302 299 286 294 298 298 299 299 299 297 295 294
284 288 286 286 285 284 287 290 291 294 295 295 294 293 293 295 297 297 296 296 296 294 295 295 296 298 296 297 296 297 297 296 294 292 289 289 291 295 296 295 296 297 298 298 298 298 290 296 294 296 294 293 291 289
289 289 286 286 284 288 291 295 296 296 295 293 294 291 292 294 296 297 298 298 297 296 296 296 296 297 296 295 294 294 292 294 293 291 290 292 292 292 292 293 295 296 297 297 296 296 295 294 292 291 290 288 288 287
288 287 285 283 286 292 294 292 292 291 292 291 290 292 293 291 290 293 295 297 294 295 291 294 293 293 295 295 294 293 288 288 287 286 286 287 287 289 291 292 293 296 296 295 294 293 292 290 287 287 286 286 285 285
288 289 289 288 288 288 291 291 289 288 289 290 290 291 291 289 287 291 295 295 294 293 292 293 293 294 293 293 292 289 287 286 283 282 282 282 282 282 288 289 293 294 293 292 291 290 288 287 285 284 284 283 283 283
Wind_Speed
22 22 23 23 23 23 24 24 24 25 24 23 22 20 18 15 11 3 6 4 3 3 14 9 8 13 9 4 4 6 8 4 5 2 1 2 1 2 4 10 15 7 5 3 3 4 4 7 4 6 6 5 9 9
22 22 23 23 22 23 25 25 25 25 24 23 22 21 18 14 12 5 4 3 4 5 11 17 17 20 15 14 2 3 3 3 2 4 2 5 3 4 4 7 12 3 4 3 6 4 1 7 3 7 8 8 8 9
24 23 24 24 23 23 24 26 27 25 24 23 23 22 19 14 13 8 5 5 3 4 10 4 2 11 15 14 9 3 2 4 2 4 2 5 4 4 2 3 3 7 14 4 9 13 18 12 11 10 1 8 6 8
24 23 24 25 25 24 24 26 27 26 24 23 22 21 19 15 13 10 5 6 2 4 5 7 11 12 12 9 12 10 11 6 4 3 3 3 1 6 4 7 1 3 10 11 6 9 22 20 22 19 10 11 7 5
24 24 24 25 27 25 24 25 27 27 24 24 23 21 19 14 13 8 8 7 5 2 4 8 19 5 9 4 11 14 10 6 5 4 3 3 3 3 2 4 5 6 4 4 5 20 4 16 19 19 13 15 10 18
24 25 25 25 27 27 26 26 28 28 25 24 25 22 16 12 8 4 2 3 2 3 4 6 6 7 6 7 7 8 9 5 5 3 4 4 4 3 3 2 5 6 4 10 8 15 11 13 11 19 10 15 15 14
24 25 26 26 27 27 27 26 28 29 27 25 22 18 12 7 3 4 2 1 2 2 3 6 5 5 6 7 4 4 5 4 4 4 4 3 4 6 3 4 8 9 10 5 10 6 17 12 17 16 16 8 13 17
24 25 26 26 27 27 27 26 28 30 29 27 20 15 8 4 6 5 4 4 5 3 2 4 5 5 2 4 4 2 3 3 3 4 2 3 4 3 6 8 7 10 10 7 9 5 5 11 18 18 15 5 4 6
25 26 27 26 27 27 27 26 28 30 31 29 21 17 2 3 4 1 7 6 1 2 3 3 3 4 6 3 4 4 1 3 4 3 5 3 4 6 3 2 6 9 10 9 7 8 3 9 13 19 19 11 12 7
26 27 27 27 27 27 26 25 27 30 34 26 3 3 3 2 2 9 2 3 1 2 3 5 2 4 2 1 2 5 3 3 3 2 5 5 8 13 17 16 14 13 12 8 8 5 3 8 15 16 21 10 11 12
26 27 28 28 28 27 25 23 24 28 13 5 5 3 6 6 2 3 2 2 2 3 3 4 4 9 2 2 2 3 3 3 3 4 5 4 1 8 16 19 17 18 19 18 9 13 15 12 11 11 18 18 10 16
26 27 29 29 28 26 23 22 21 8 4 6 5 7 5 4 2 3 4 4 3 4 4 4 8 5 2 3 2 3 3 3 4 6 4 3 4 17 18 19 20 18 18 18 15 13 12 13 10 10 6 11 20 8
26 27 29 29 29 24 21 23 20 16 11 2 3 4 4 4 6 4 5 4 5 5 5 10 8 2 3 3 1 2 2 3 5 1 2 4 10 13 16 15 17 17 13 14 16 13 12 9 18 15 8 9 18 14
26 28 29 29 25 19 24 26 22 10 2 4 3 7 2 4 2 3 6 5 6 5 8 5 3 2 2 1 2 4 3 3 3 4 3 6 15 15 10 15 17 17 14 11 12 12 13 9 7 10 16 8 11 9
25 29 31 16 23 29 29 27 24 3 4 3 1 1 2 4 7 7 4 5 5 6 8 3 2 2 3 4 3 4 7 4 4 4 5 10 17 15 9 18 15 13 11 11 10 9 6 9 7 7 5 4 7 9
25 26 4 28 29 32 31 20 5 3 4 3 4 3 5 5 4 8 5 4 5 7 8 4 3 4 4 2 6 3 7 4 5 5 10 8 13 12 10 18 18 13 4 5 7 6 6 5 3 2 3 5 8 10
19 6 20 26 30 32 29 4 3 4 3 3 3 4 4 5 2 4 4 3 5 3 3 2 4 3 2 3 4 2 3 5 7 8 10 9 7 11 14 11 21 19 8 8 8 5 4 3 2 4 4 6 7 9
5 12 24 27 21 14 4 4 4 3 5 5 4 5 4 2 4 3 2 3 4 4 4 2 1 3 1 2 4 4 5 7 6 5 6 7 5 6 9 11 15 21 15 15 13 9 7 5 1 2 3 4 3 7
14 16 28 29 9 6 5 4 3 3 4 4 4 5 3 3 3 3 4 4 2 2 2 3 3 3 3 2 5 6 5 8 9 4 4 7 9 4 10 11 9 11 17 18 15 8 6 9 7 6 6 7 7 6
26 24 22 17 5 4 6 5 4 4 4 4 4 5 6 4 3 1 3 4 2 1 3 1 2 3 3 5 4 4 5 3 5 9 6 4 6 8 6 10 9 9 10 10 11 13 8 10 9 8 7 6 6 8
10 4 8 7 6 6 5 4 4 4 4 3 5 6 5 3 3 3 1 3 1 2 3 2 1 2 4 4 5 7 7 6 1 6 5 5 3 6 8 6 9 8 7 8 8 7 9 6 6 6 4 9 7 6
6 10 4 5 4 5 6 6 4 3 3 4 6 7 5 3 3 4 4 3 1 2 0 2 1 2 3 4 6 9 12 13 9 7 6 7 4 4 6 7 9 9 9 8 6 7 6 3 3 3 4 5 8 8
10 4 4 5 5 3 7 3 5 6 4 4 2 2 2 2 4 4 2 3 4 5 2 1 3 3 4 6 6 4 7 10 8 9 9 5 8 7 5 6 7 9 10 9 7 7 4 8 7 5 3 5 8 8
7 4 5 5 6 5 4 4 3 2 3 2 1 4 5 4 5 4 8 3 3 4 4 2 3 2 2 6 2 3 5 5 7 9 9 7 6 3 5 5 6 8 8 6 7 7 8 8 10 10 10 9 7 8
4 7 3 7 5 5 5 4 4 3 5 3 4 5 2 1 2 8 9 3 5 5 6 3 1 3 3 2 3 3 4 4 4 1 5 7 5 3 1 3 6 7 8 8 8 6 5 6 8 10 12 13 12 9
7 6 8 6 4 5 4 4 6 6 8 7 4 3 1 1 3 5 3 4 6 4 3 5 3 1 2 3 3 2 4 5 4 4 2 5 4 4 5 6 6 6 7 7 5 10 8 6 9 13 12 13 13 11
7 7 6 6 3 4 5 5 5 3 5 4 3 3 1 3 4 3 3 4 2 3 3 1 2 3 2 2 4 4 3 5 7 7 5 5 9 6 4 4 4 3 5 6 7 8 7 6 6 9 11 12 12 12
7 5 9 3 5 4 8 9 5 4 3 2 2 5 6 6 4 2 3 7 8 3 1 1 3 3 3 1 4 5 4 4 6 8 8 6 4 7 12 1 3 5 4 5 6 6 8 9 10 10 12 11 10 10
6 5 6 10 7 5 9 15 15 9 9 8 6 7 11 6 4 3 3 5 4 4 3 1 4 3 4 4 7 8 6 5 6 10 10 6 4 4 9 11 7 3 4 4 6 7 10 9 10 11 12 10 9 9
6 7 7 6 9 9 8 7 8 9 10 10 9 10 8 7 5 5 6 2 1 2 4 4 5 7 6 6 7 7 5 6 7 6 4 5 7 4 5 8 11 6 5 6 6 6 8 7 8 10 10 8 7 7
4 6 7 5 6 9 11 9 7 7 7 9 9 7 6 2 1 9 9 8 8 9 4 10 9 8 7 7 5 4 5 5 7 8 7 5 6 7 7 9 9 6 4 7 7 6 8 7 6 7 9 10 10 8
6 8 8 12 9 8 9 6 6 8 9 8 9 5 4 5 5 4 9 7 10 8 7 8 9 7 6 5 7 5 7 7 7 7 9 6 6 7 7 7 7 6 7 7 7 7 10 8 6 7 8 10 10 10
7 8 7 6 3 2 4 5 5 7 3 3 4 5 5 5 3 2 5 7 7 7 6 5 5 6 8 8 7 8 8 7 6 5 5 6 7 8 6 6 5 7 9 8 9 10 11 12 10 11 11 11 11 11
Wind_Direction
337 333 331 331 331 329 327 327 326 325 327 328 328 329 332 333 347 272 276 227 235 261 286 266 302 311 303 269 291 322 330 8 307 135 244 298 40 153 335 277 292 297 315 181 161 107 197 141 299 212 196 191 150 167
337 334 328 327 328 330 327 325 325 325 324 322 323 321 321 323 318 317 270 282 269 251 267 282 276 263 250 254 219 203 167 309 310 315 331 328 223 124 201 267 346 3 5 250 27 224 210 64 42 306 195 183 157 141
334 334 329 327 327 329 328 325 325 322 319 318 316 316 312 312 311 302 288 288 288 274 289 286 204 258 228 228 200 235 242 187 243 161 313 288 265 330 315 325 291 248 354 28 346 359 341 346 350 334 274 119 145 158
328 330 330 327 326 327 329 326 322 319 317 315 312 312 309 306 305 303 277 277 245 274 287 282 343 322 287 207 199 199 242 279 228 159 243 258 267 354 358 343 272 303 324 329 293 325 341 10 352 328 354 17 81 102
327 328 330 329 326 327 329 327 322 317 318 317 316 314 308 304 303 290 258 259 219 200 293 297 301 261 334 58 192 229 220 242 291 295 203 282 287 110 207 211 199 161 251 338 291 334 347 304 323 321 22 9 12 1
327 328 328 330 326 326 328 329 322 318 320 322 324 322 315 303 306 291 309 8 124 205 302 302 320 276 306 335 291 287 193 212 232 218 269 222 164 124 271 301 289 54 183 253 293 278 289 302 327 352 353 23 5 7
327 326 327 329 328 327 328 328 323 319 321 324 326 320 312 293 243 238 259 186 310 308 257 284 294 310 359 306 299 293 281 226 202 231 239 254 259 156 238 235 237 248 203 218 252 352 321 347 319 328 329 31 28 19
326 325 324 327 328 328 328 327 322 321 321 321 323 318 300 277 261 275 248 222 175 236 205 282 281 289 16 318 306 322 310 298 256 202 247 233 279 224 243 227 252 282 285 244 270 157 242 286 311 327 337 356 58 57
324 325 325 326 327 328 327 325 321 323 320 315 314 297 257 204 236 110 156 139 232 292 290 254 252 276 346 303 283 326 321 296 296 241 233 223 232 231 220 229 223 256 262 268 241 151 281 291 305 315 318 326 334 320
322 324 325 325 327 328 325 323 323 325 318 314 298 209 237 139 183 129 101 167 223 214 231 255 83 259 288 279 306 345 345 311 315 10 291 217 240 251 5 353 330 315 292 294 289 180 174 259 273 293 302 308 321 323
321 323 324 325 326 327 321 321 328 330 312 349 349 311 328 301 271 210 280 228 218 245 218 276 266 317 186 322 336 6 333 317 302 1 323 304 33 13 350 334 330 324 328 279 241 267 203 171 243 256 278 311 272 275
319 322 323 324 324 322 319 324 334 334 332 313 289 280 267 267 297 344 9 354 340 300 302 301 322 329 52 55 11 7 331 325 281 357 296 270 15 350 337 325 316 310 299 299 274 246 266 179 206 254 245 287 297 275
318 319 321 322 320 318 321 325 329 318 290 200 212 244 53 285 8 7 356 319 305 285 284 313 323 107 131 64 28 342 311 274 322 291 290 291 311 317 315 303 295 295 270 281 298 265 265 215 191 220 253 220 277 314
318 318 317 318 312 318 327 328 328 338 287 253 303 332 17 327 20 255 252 242 230 233 307 316 339 37 81 322 40 322 321 287 319 318 316 297 318 314 301 321 309 302 296 275 278 289 236 215 199 209 233 185 269 272
320 318 314 308 338 335 327 323 314 245 264 264 282 306 296 256 280 320 344 317 330 317 326 351 18 30 31 39 21 325 336 338 341 302 280 303 305 334 310 332 326 315 276 264 263 285 286 226 195 213 233 229 206 245
324 313 323 353 332 326 320 313 268 216 248 231 217 215 238 282 339 323 346 324 331 6 327 60 23 7 26 24 8 10 321 337 298 285 293 282 296 321 340 347 346 341 300 264 256 271 296 314 318 313 326 268 286 272
319 234 336 326 323 319 304 261 251 235 248 250 246 257 253 273 222 288 324 317 327 28 331 355 33 357 356 6 356 303 293 263 277 297 318 311 296 326 335 352 355 350 2 50 36 3 305 299 334 306 311 339 319 297
260 307 309 311 327 298 265 215 259 265 253 244 240 252 273 281 291 287 319 334 24 344 329 340 90 46 47 301 293 245 243 275 270 237 292 345 333 348 337 358 13 359 26 42 33 33 42 37 131 42 296 227 87 29
291 295 298 297 297 305 280 261 156 271 280 306 318 292 297 285 257 277 33 342 17 354 31 18 30 0 317 245 266 292 346 330 343 302 296 343 26 53 1 7 11 18 25 26 21 23 46 48 51 39 26 54 51 347
295 291 281 284 192 256 264 259 159 228 262 248 291 297 277 255 291 203 166 252 116 110 56 65 189 246 245 289 304 325 318 37 350 325 335 23 11 41 41 356 1 7 20 30 18 6 35 53 37 34 26 49 72 12
289 247 259 243 210 220 279 279 268 234 261 228 244 279 274 294 266 296 295 355 35 198 169 198 57 306 348 329 330 318 335 331 254 288 341 7 24 31 34 29 4 8 19 10 20 24 28 40 53 6 26 66 68 60
255 273 278 235 244 235 228 219 241 274 296 276 277 272 276 271 252 256 181 176 219 278 250 90 310 349 24 13 7 5 335 329 356 350 4 360 16 38 33 34 10 5 23 19 31 29 39 17 23 80 63 67 87 75
287 243 215 243 257 251 260 278 243 214 233 272 330 306 264 268 266 286 162 204 200 203 211 200 19 356 61 37 23 73 325 358 349 346 343 21 23 17 22 34 32 21 17 13 17 30 23 355 38 55 92 87 74 65
208 248 245 238 215 246 255 240 232 216 275 303 225 257 275 280 282 283 267 236 75 76 0 344 100 297 327 84 34 319 346 44 314 350 345 348 80 7 330 30 23 26 10 12 16 24 28 39 27 31 38 51 92 82
252 244 202 255 266 253 233 234 235 218 235 239 235 254 259 323 315 290 284 283 156 180 172 262 50 94 259 264 161 228 305 5 19 127 328 337 338 161 153 52 46 32 10 5 12 31 27 38 46 50 47 37 42 73
238 237 198 222 227 232 222 220 210 222 235 228 240 219 41 316 252 257 253 27 98 104 189 226 199 183 351 17 61 52 345 4 3 355 346 289 358 16 33 37 24 9 7 358 358 30 13 30 65 61 51 43 31 39
237 241 230 237 264 261 256 247 251 237 217 202 161 139 176 244 244 242 32 27 153 131 98 332 23 1 325 262 100 66 42 26 5 321 311 36 3 347 75 68 47 339 349 358 13 27 33 29 40 75 73 57 42 37
237 254 226 212 230 236 262 262 253 266 224 216 184 204 190 199 231 265 127 182 219 133 80 290 230 245 286 184 97 73 41 14 358 23 11 47 25 357 349 351 84 103 53 14 40 31 30 39 55 66 68 64 52 34
230 228 216 238 236 219 235 245 252 248 267 255 231 223 246 254 250 267 197 196 176 196 231 238 75 45 358 37 72 58 44 15 17 47 50 40 357 356 343 344 355 28 102 84 45 66 68 62 65 60 63 64 57 41
235 201 216 226 233 238 235 253 229 219 228 249 265 278 269 226 233 43 302 324 271 264 93 76 59 70 65 76 91 78 60 44 38 36 40 40 352 8 37 4 329 349 6 27 45 70 57 58 77 78 73 72 61 55
257 205 209 216 245 250 261 250 216 238 262 269 264 257 247 188 50 43 30 13 28 25 9 91 81 70 70 65 62 79 93 53 51 40 16 355 10 4 356 350 342 343 32 56 37 32 76 62 52 69 87 91 83 75
202 217 225 248 242 247 265 250 221 236 244 262 274 245 9 33 25 65 4 21 60 53 39 53 68 64 81 92 93 74 57 64 52 37 23 11 5 357 349 344 329 351 18 71 74 69 55 58 65 67 70 73 77 79
223 240 249 256 259 254 236 213 275 277 270 241 242 242 206 171 144 127 67 32 63 79 72 68 93 87 74 62 81 93 87 93 94 79 61 46 29 5 358 348 359 35 40 54 62 65 65 65 65 66 64 65 67 71